M I D A S
Marine Information and Data Acquisition System
Tripno 1108 of the Zeeleeuw from 2006-06-02 06:35:58 to 2006-06-02 14:54:49
Back to CruiseResearch ActivitiesStationsMapUnderway DataData graphs

EquipmentUnitsComment
TimeDGPSUTC
LatitudeDGPSDM.mWGS84
LongitudeDGPSDM.mWGS84
HeadingGyrodeg 
SOGDGPSknotsSpeed over ground
COGDGPSdegCourse over ground
DepthEcho soundermeters200 kHz
Missing or incorrect values are displayed as -999
Navigation data collected by the RV Zeeleeuw from 2006-06-02 06:32:24 to 2006-06-02 15:07:40
                                                                                    Next 1000 lines
Time Latitude Longitude Heading SOG COG Depth
2006-06-02 06:32:34 51°13.601 2°56.095 104.6 0.5 289 7.3
2006-06-02 06:32:38 51°13.601 2°56.094 104.3 0.7 286 7.4
2006-06-02 06:32:44 51°13.602 2°56.091 103.9 0.9 286 5.3
2006-06-02 06:32:49 51°13.602 2°56.089 103.9 1.1 285 7
2006-06-02 06:32:53 51°13.602 2°56.086 103.9 1.4 287 -999
2006-06-02 06:32:59 51°13.603 2°56.082 104.1 1.5 286 8.1
2006-06-02 06:33:04 51°13.604 2°56.078 104.5 1.9 287 -999
2006-06-02 06:33:09 51°13.605 2°56.073 104.8 2.2 287 -999
2006-06-02 06:33:14 51°13.606 2°56.068 105.1 2.3 287 -999
2006-06-02 06:33:19 51°13.607 2°56.063 105.1 2.5 286 -999
2006-06-02 06:33:24 51°13.608 2°56.057 105.1 2.6 286 -999
2006-06-02 06:33:29 51°13.609 2°56.051 105.1 2.8 286 -999
2006-06-02 06:33:34 51°13.61 2°56.044 105.2 3 285 -999
2006-06-02 06:33:39 51°13.611 2°56.038 105.2 3.1 285 -999
2006-06-02 06:33:44 51°13.612 2°56.031 105.7 3.2 284 -999
2006-06-02 06:33:49 51°13.613 2°56.023 106.2 3.4 285 -999
2006-06-02 06:33:54 51°13.614 2°56.016 106.9 3.5 283 -999
2006-06-02 06:33:59 51°13.616 2°56.008 107.8 3.6 285 -999
2006-06-02 06:34:04 51°13.617 2°56 109.1 3.7 285 -999
2006-06-02 06:34:09 51°13.618 2°55.992 110.6 3.7 287 -999
2006-06-02 06:34:14 51°13.62 2°55.984 112.4 3.8 289 -999
2006-06-02 06:34:18 51°13.621 2°55.978 114.5 3.9 291 -999
2006-06-02 06:34:24 51°13.624 2°55.968 116.5 3.9 292 -999
2006-06-02 06:34:29 51°13.626 2°55.96 118.6 4 293 -999
2006-06-02 06:34:34 51°13.629 2°55.952 120.4 4.2 296 -999
2006-06-02 06:34:39 51°13.632 2°55.943 122 4.3 297 -999
2006-06-02 06:34:44 51°13.635 2°55.935 123.8 4.4 300 -999
2006-06-02 06:34:49 51°13.639 2°55.926 125.5 4.5 300 -999
2006-06-02 06:34:54 51°13.642 2°55.918 127 4.6 303 -999
2006-06-02 06:34:59 51°13.646 2°55.909 128.5 4.6 304 -999
2006-06-02 06:35:04 51°13.65 2°55.901 130 4.6 306 -999
2006-06-02 06:35:09 51°13.654 2°55.893 131.3 4.6 307 -999
2006-06-02 06:35:14 51°13.658 2°55.885 132.3 4.6 308 -999
2006-06-02 06:35:19 51°13.661 2°55.877 133.2 4.6 309 -999
2006-06-02 06:35:24 51°13.665 2°55.869 133.9 4.8 310 -999
2006-06-02 06:35:29 51°13.669 2°55.86 134.4 4.9 311 -999
2006-06-02 06:35:34 51°13.674 2°55.852 134.9 5.1 312 -999
2006-06-02 06:35:39 51°13.678 2°55.844 135.2 5.1 312 -999
2006-06-02 06:35:44 51°13.683 2°55.836 135.3 4.9 313 -999
2006-06-02 06:35:49 51°13.687 2°55.829 135.4 4.8 313 -999
2006-06-02 06:35:54 51°13.692 2°55.821 135.3 4.7 313 -999
2006-06-02 06:35:59 51°13.696 2°55.813 134.9 4.6 312 -999
2006-06-02 06:36:04 51°13.701 2°55.806 134.2 4.6 313 -999
2006-06-02 06:36:09 51°13.705 2°55.799 133.5 4.3 313 -999
2006-06-02 06:36:14 51°13.708 2°55.793 133 4 312 -999
2006-06-02 06:36:19 51°13.712 2°55.787 132.7 3.8 312 -999
2006-06-02 06:36:24 51°13.715 2°55.781 131.9 3.4 312 -999
2006-06-02 06:36:29 51°13.718 2°55.776 131.3 3 312 12.6
2006-06-02 06:36:34 51°13.72 2°55.772 130.3 2.5 309 12.7
2006-06-02 06:36:38 51°13.722 2°55.77 128.5 2.2 311 12.7
2006-06-02 06:36:44 51°13.723 2°55.766 126.3 1.9 307 12.6
2006-06-02 06:36:49 51°13.725 2°55.763 123.1 1.7 307 12.7
2006-06-02 06:36:54 51°13.726 2°55.76 119.4 1.6 303 -999
2006-06-02 06:36:58 51°13.727 2°55.758 117.2 1.6 303 -999
2006-06-02 06:37:04 51°13.728 2°55.756 114.6 1.1 308 -999
2006-06-02 06:37:09 51°13.729 2°55.755 112.2 0.9 307 -999
2006-06-02 06:37:14 51°13.729 2°55.754 109.4 0.7 302 -999
2006-06-02 06:37:19 51°13.73 2°55.752 106 0.8 305 -999
2006-06-02 06:37:24 51°13.731 2°55.75 103.7 0.9 297 -999
2006-06-02 06:37:29 51°13.732 2°55.748 101.8 1 294 -999
2006-06-02 06:37:34 51°13.732 2°55.746 100.1 1.2 290 -999
2006-06-02 06:37:39 51°13.733 2°55.742 98.5 1.4 289 -999
2006-06-02 06:37:44 51°13.733 2°55.739 96.9 1.1 284 -999
2006-06-02 06:37:49 51°13.734 2°55.737 95.6 1 286 -999
2006-06-02 06:37:53 51°13.734 2°55.735 94.7 1 285 4.7
2006-06-02 06:37:59 51°13.734 2°55.733 93.1 0.7 281 -999
2006-06-02 06:38:04 51°13.734 2°55.732 90.7 0.4 313 -999
2006-06-02 06:38:09 51°13.734 2°55.733 87.2 0.3 10 -999
2006-06-02 06:38:14 51°13.735 2°55.733 82.1 0.4 33 -999
2006-06-02 06:38:19 51°13.735 2°55.734 77.5 0.4 41 -999
2006-06-02 06:38:22 51°13.736 2°55.734 74.2 0.3 17 4.7
2006-06-02 06:38:29 51°13.736 2°55.733 70.9 0.3 301 4.6
2006-06-02 06:38:34 51°13.736 2°55.731 67.5 0.8 261 4.7
2006-06-02 06:38:39 51°13.735 2°55.728 64.6 1.2 250 4.7
2006-06-02 06:38:43 51°13.735 2°55.725 61.6 1.6 246 5.1
2006-06-02 06:38:49 51°13.733 2°55.721 59.3 2.1 240 12.1
2006-06-02 06:38:54 51°13.731 2°55.716 56.6 2.4 238 -999
2006-06-02 06:38:58 51°13.73 2°55.713 54.2 2.3 235 -999
2006-06-02 06:39:04 51°13.727 2°55.708 52.5 2.1 235 -999
2006-06-02 06:39:09 51°13.726 2°55.705 51.8 1.9 235 -999
2006-06-02 06:39:14 51°13.725 2°55.703 50.6 1.5 234 -999
2006-06-02 06:39:19 51°13.724 2°55.701 48.7 1 235 -999
2006-06-02 06:39:24 51°13.724 2°55.7 46 0.6 240 -999
2006-06-02 06:39:29 51°13.724 2°55.7 42.7 0.4 270 -999
2006-06-02 06:39:34 51°13.725 2°55.7 38.7 0.4 11 -999
2006-06-02 06:39:39 51°13.726 2°55.7 33.4 0.6 8 -999
2006-06-02 06:39:44 51°13.727 2°55.701 28.3 0.9 17 -999
2006-06-02 06:39:49 51°13.729 2°55.701 24.4 1.2 7 12.5
2006-06-02 06:39:54 51°13.731 2°55.703 20.9 1.4 11 12.4
2006-06-02 06:39:58 51°13.733 2°55.703 16 1.7 7 -999
2006-06-02 06:40:04 51°13.737 2°55.703 9.4 2.3 1 -999
2006-06-02 06:40:09 51°13.741 2°55.702 3.3 2.6 356 -999
2006-06-02 06:40:13 51°13.744 2°55.701 359.4 3 354 11.8
2006-06-02 06:40:18 51°13.749 2°55.699 355.2 3.4 347 11.4
2006-06-02 06:40:24 51°13.754 2°55.695 351 3.5 347 11.3
2006-06-02 06:40:29 51°13.76 2°55.692 346.5 3.9 340 11.6
2006-06-02 06:40:34 51°13.765 2°55.688 344 4.5 340 11.7
2006-06-02 06:40:39 51°13.771 2°55.682 342.5 5 338 11.7
2006-06-02 06:40:44 51°13.778 2°55.678 341.6 5.3 337 11.8
2006-06-02 06:40:49 51°13.785 2°55.674 341 5.5 336 11.8
2006-06-02 06:40:54 51°13.794 2°55.669 340.2 5.9 336 11.9
2006-06-02 06:40:59 51°13.802 2°55.663 339.1 6.2 335 11.9
2006-06-02 06:41:04 51°13.811 2°55.658 338.2 6.3 335 11.9
2006-06-02 06:41:08 51°13.818 2°55.653 338.1 6.7 335 11.8
2006-06-02 06:41:14 51°13.828 2°55.645 338.4 6.8 335 11.8
2006-06-02 06:41:18 51°13.835 2°55.64 338.4 6.9 335 11.9
2006-06-02 06:41:24 51°13.845 2°55.631 338 7.1 334 11.9
2006-06-02 06:41:29 51°13.855 2°55.625 337.6 7.3 334 11.9
2006-06-02 06:41:34 51°13.864 2°55.618 337.5 7.3 334 11.9
2006-06-02 06:41:39 51°13.874 2°55.61 337.5 7.5 334 11.9
2006-06-02 06:41:42 51°13.88 2°55.606 337.6 7.6 335 11.9
2006-06-02 06:41:49 51°13.893 2°55.596 337.8 7.7 335 12
2006-06-02 06:41:54 51°13.903 2°55.589 338.2 7.7 336 12
2006-06-02 06:41:58 51°13.911 2°55.583 338.5 7.8 335 12
2006-06-02 06:42:04 51°13.922 2°55.573 338.6 7.8 335 12
2006-06-02 06:42:09 51°13.932 2°55.566 338.5 7.9 336 12
2006-06-02 06:42:14 51°13.942 2°55.559 338.6 7.9 336 11.9
2006-06-02 06:42:18 51°13.95 2°55.553 338.9 8 336 11.9
2006-06-02 06:42:24 51°13.962 2°55.545 339.5 8 337 11.9
2006-06-02 06:42:29 51°13.973 2°55.539 339.7 8 337 11.9
2006-06-02 06:42:34 51°13.983 2°55.532 339.8 8 337 11.9
2006-06-02 06:42:38 51°13.991 2°55.527 340.3 7.9 337 12
2006-06-02 06:42:44 51°14.003 2°55.519 340.8 7.9 338 12
2006-06-02 06:42:49 51°14.013 2°55.512 340.9 7.8 337 12
2006-06-02 06:42:54 51°14.023 2°55.505 340.8 7.8 337 12
2006-06-02 06:42:58 51°14.031 2°55.5 340.7 7.8 337 12
2006-06-02 06:43:03 51°14.04 2°55.493 340.9 7.7 338 11.9
2006-06-02 06:43:08 51°14.05 2°55.487 341.1 7.7 337 12
2006-06-02 06:43:13 51°14.06 2°55.48 341 7.7 337 12
2006-06-02 06:43:18 51°14.07 2°55.473 340.6 7.7 336 12
2006-06-02 06:43:24 51°14.081 2°55.464 339.9 7.7 336 12
2006-06-02 06:43:29 51°14.091 2°55.457 339.7 7.7 336 12
2006-06-02 06:43:34 51°14.101 2°55.45 339.6 7.7 337 11.9
2006-06-02 06:43:38 51°14.109 2°55.445 339.9 7.7 337 11.9
2006-06-02 06:43:44 51°14.12 2°55.437 340 7.7 336 11.9
2006-06-02 06:43:49 51°14.13 2°55.43 339.6 7.8 336 12
2006-06-02 06:43:54 51°14.14 2°55.423 338.8 7.8 336 11.9
2006-06-02 06:43:59 51°14.15 2°55.415 337.7 7.8 336 11.9
2006-06-02 06:44:02 51°14.155 2°55.41 336.2 7.8 331 11.9
2006-06-02 06:44:09 51°14.168 2°55.398 334.6 7.8 330 11.9
2006-06-02 06:44:14 51°14.177 2°55.388 332.7 7.8 329 11.9
2006-06-02 06:44:18 51°14.184 2°55.38 330.9 7.8 327 11.9
2006-06-02 06:44:24 51°14.195 2°55.369 329.1 7.8 325 11.9
2006-06-02 06:44:29 51°14.204 2°55.358 327.5 7.9 323 11.9
2006-06-02 06:44:34 51°14.213 2°55.348 327 8 323 11.9
2006-06-02 06:44:38 51°14.22 2°55.338 326.2 8 322 11.9
2006-06-02 06:44:44 51°14.23 2°55.324 323.9 8.1 319 11.8
2006-06-02 06:44:49 51°14.238 2°55.311 321.1 8.3 315 11.9
2006-06-02 06:44:54 51°14.246 2°55.297 318.6 8.3 315 11.8
2006-06-02 06:44:58 51°14.252 2°55.286 317.1 8.4 313 11.9
2006-06-02 06:45:03 51°14.26 2°55.272 315.8 8.4 312 11.8
2006-06-02 06:45:09 51°14.269 2°55.255 314.6 8.5 311 11.8
2006-06-02 06:45:14 51°14.277 2°55.24 313.7 8.5 310 11.8
2006-06-02 06:45:19 51°14.284 2°55.225 313.5 8.7 310 11.8
2006-06-02 06:45:24 51°14.292 2°55.211 313.4 8.7 310 11.8
2006-06-02 06:45:29 51°14.3 2°55.196 313.7 8.7 310 11.8
2006-06-02 06:45:34 51°14.309 2°55.18 314.3 9 311 11.8
2006-06-02 06:45:38 51°14.315 2°55.169 315.4 9.1 311 11.8
2006-06-02 06:45:44 51°14.325 2°55.15 316.1 9.1 312 11.8
2006-06-02 06:45:49 51°14.334 2°55.135 316.5 9.1 312 11.7
2006-06-02 06:45:54 51°14.343 2°55.121 316.7 9.1 313 11.7
2006-06-02 06:45:58 51°14.35 2°55.109 317.2 9.3 313 11.7
2006-06-02 06:46:04 51°14.361 2°55.091 318.1 9.4 314 11.7
2006-06-02 06:46:08 51°14.369 2°55.079 319.1 9.5 315 11.8
2006-06-02 06:46:13 51°14.378 2°55.065 320.4 9.5 316 11.9
2006-06-02 06:46:18 51°14.388 2°55.05 321.4 9.7 317 11.9
2006-06-02 06:46:24 51°14.4 2°55.034 321.9 9.7 317 11.8
2006-06-02 06:46:29 51°14.411 2°55.019 323 9.7 319 11.5
2006-06-02 06:46:34 51°14.421 2°55.005 324 9.9 320 11.5
2006-06-02 06:46:38 51°14.43 2°54.995 325.8 10 324 11.3
2006-06-02 06:46:44 51°14.445 2°54.981 328.5 10 325 11.5
2006-06-02 06:46:49 51°14.457 2°54.969 331.3 10 325 11
2006-06-02 06:46:54 51°14.469 2°54.958 333.6 10.2 330 11
2006-06-02 06:46:58 51°14.479 2°54.95 335.3 10.2 331 10.8
2006-06-02 06:47:04 51°14.495 2°54.938 336.8 10.5 335 10.6
2006-06-02 06:47:09 51°14.508 2°54.928 338.2 10.6 336 10.7
2006-06-02 06:47:14 51°14.522 2°54.92 339.5 10.6 337 10.6
2006-06-02 06:47:18 51°14.533 2°54.913 341.4 10.8 338 10.4
2006-06-02 06:47:23 51°14.548 2°54.906 343.8 10.9 342 10.5
2006-06-02 06:47:29 51°14.566 2°54.898 345.9 11.1 344 10.5
2006-06-02 06:47:34 51°14.58 2°54.892 347.3 11.1 344 10.6
2006-06-02 06:47:39 51°14.596 2°54.886 348.8 11.1 344 10.3
2006-06-02 06:47:42 51°14.604 2°54.882 349.6 11.4 347 10.3
2006-06-02 06:47:49 51°14.626 2°54.874 350.5 11.5 348 10.3
2006-06-02 06:47:54 51°14.642 2°54.869 351.1 11.6 348 10.3
2006-06-02 06:47:58 51°14.654 2°54.865 351.7 11.7 349 10.3
2006-06-02 06:48:04 51°14.674 2°54.859 351.8 11.8 349 10.2
2006-06-02 06:48:09 51°14.69 2°54.854 351.8 12.1 349 10.4
2006-06-02 06:48:13 51°14.703 2°54.85 351.8 12 349 10.3
2006-06-02 06:48:18 51°14.719 2°54.844 351.4 12 348 10.2
2006-06-02 06:48:24 51°14.739 2°54.837 350.8 12.1 347 10.3
2006-06-02 06:48:28 51°14.752 2°54.832 350.3 12.2 346 10.2
2006-06-02 06:48:34 51°14.773 2°54.824 349.5 12.2 346 10
2006-06-02 06:48:39 51°14.789 2°54.817 348.6 12.2 346 10.3
2006-06-02 06:48:42 51°14.799 2°54.813 347.9 12.3 344 10.2
2006-06-02 06:48:49 51°14.821 2°54.801 346.9 12.3 344 10.1
2006-06-02 06:48:54 51°14.838 2°54.794 346.2 12.3 343 10.1
2006-06-02 06:48:58 51°14.851 2°54.788 346.3 12.3 344 10.3
2006-06-02 06:49:04 51°14.871 2°54.779 346.7 12.4 344 10.2
2006-06-02 06:49:09 51°14.888 2°54.772 347 12.4 345 10.2
2006-06-02 06:49:14 51°14.904 2°54.766 347.5 12.4 345 10.1
2006-06-02 06:49:18 51°14.918 2°54.761 348.1 12.5 346 9.9
2006-06-02 06:49:23 51°14.935 2°54.755 348.9 12.4 347 9.9
2006-06-02 06:49:29 51°14.954 2°54.747 349.8 12.4 347 10.2
2006-06-02 06:49:34 51°14.971 2°54.741 349.8 12.5 347 10.2
2006-06-02 06:49:38 51°14.984 2°54.736 349.4 12.3 347 10
2006-06-02 06:49:43 51°15.002 2°54.729 348.4 12.4 345 10
2006-06-02 06:49:49 51°15.021 2°54.72 347.8 12.4 345 10
2006-06-02 06:49:54 51°15.037 2°54.714 347.6 12.5 345 9.7
2006-06-02 06:49:59 51°15.054 2°54.706 347.2 12.4 345 9.6
2006-06-02 06:50:04 51°15.071 2°54.698 347.1 12.4 345 9.4
2006-06-02 06:50:09 51°15.088 2°54.691 347.1 12.6 344 9.4
2006-06-02 06:50:14 51°15.105 2°54.684 347 12.6 345 9.4
2006-06-02 06:50:18 51°15.118 2°54.678 347.4 12.8 345 9.2
2006-06-02 06:50:24 51°15.139 2°54.67 347.6 12.8 345 9.3
2006-06-02 06:50:29 51°15.157 2°54.663 347.9 12.9 345 9.4
2006-06-02 06:50:34 51°15.174 2°54.656 348.7 12.9 346 9.4
2006-06-02 06:50:39 51°15.192 2°54.65 349.3 13 347 9.4
2006-06-02 06:50:44 51°15.21 2°54.644 349.8 13.1 348 9.5
2006-06-02 06:50:49 51°15.227 2°54.639 350.5 13.1 348 9.6
2006-06-02 06:50:53 51°15.242 2°54.635 351.1 13.1 350 9.6
2006-06-02 06:50:58 51°15.259 2°54.629 351.5 13 349 9.7
2006-06-02 06:51:04 51°15.28 2°54.621 350.7 13 347 9.7
2006-06-02 06:51:09 51°15.298 2°54.613 349.5 13 345 9.7
2006-06-02 06:51:13 51°15.312 2°54.607 348.5 13.1 345 9.9
2006-06-02 06:51:18 51°15.329 2°54.599 347.9 13 345 9.8
2006-06-02 06:51:24 51°15.35 2°54.588 346.6 12.9 343 9.8
2006-06-02 06:51:29 51°15.366 2°54.579 345.6 12.9 342 9.9
2006-06-02 06:51:34 51°15.384 2°54.57 345 12.9 342 9.8
2006-06-02 06:51:39 51°15.401 2°54.561 344.9 12.9 342 10
2006-06-02 06:51:42 51°15.411 2°54.556 344.8 12.9 343 10.2
2006-06-02 06:51:49 51°15.434 2°54.545 345.7 13 344 10.2
2006-06-02 06:51:54 51°15.452 2°54.538 346.7 12.9 344 10.3
2006-06-02 06:51:59 51°15.469 2°54.531 348.3 12.8 347 10.2
2006-06-02 06:52:04 51°15.487 2°54.525 349.9 12.9 347 10.2
2006-06-02 06:52:08 51°15.501 2°54.521 351.3 12.9 349 10.3
2006-06-02 06:52:14 51°15.522 2°54.515 352.7 12.9 349 10.3
2006-06-02 06:52:19 51°15.54 2°54.511 353.2 12.9 350 10.5
2006-06-02 06:52:24 51°15.558 2°54.506 353.5 12.9 351 10.5
2006-06-02 06:52:28 51°15.572 2°54.502 353.9 13 350 10.7
2006-06-02 06:52:34 51°15.593 2°54.496 353.6 13 350 10.7
2006-06-02 06:52:38 51°15.607 2°54.492 353.3 13 350 10.7
2006-06-02 06:52:44 51°15.629 2°54.486 353.1 13 350 10.6
2006-06-02 06:52:49 51°15.647 2°54.481 353 13.1 350 10.7
2006-06-02 06:52:54 51°15.664 2°54.476 353.1 13 350 10.9
2006-06-02 06:52:58 51°15.679 2°54.472 353.1 13 350 11
2006-06-02 06:53:04 51°15.699 2°54.466 353 13.1 350 11.1
2006-06-02 06:53:08 51°15.714 2°54.462 353.1 13 350 11
2006-06-02 06:53:14 51°15.735 2°54.455 352.8 13 349 11
2006-06-02 06:53:18 51°15.749 2°54.45 352.3 13 349 11.1
2006-06-02 06:53:24 51°15.771 2°54.443 351.8 12.9 347 11.2
2006-06-02 06:53:29 51°15.788 2°54.437 351 13 348 11.3
2006-06-02 06:53:34 51°15.805 2°54.43 350.8 12.9 347 11.2
2006-06-02 06:53:38 51°15.82 2°54.426 350.5 13.1 348 11.2
2006-06-02 06:53:44 51°15.841 2°54.418 350.9 13.1 348 11.3
2006-06-02 06:53:49 51°15.859 2°54.413 351.4 13.1 348 11.5
2006-06-02 06:53:54 51°15.877 2°54.408 352.1 13.1 349 11.4
2006-06-02 06:53:58 51°15.891 2°54.404 352.5 13.1 350 11.5
2006-06-02 06:54:03 51°15.909 2°54.399 353.3 13.2 350 11.6
2006-06-02 06:54:09 51°15.931 2°54.393 353.2 13.1 350 11.5
2006-06-02 06:54:14 51°15.949 2°54.388 353 13.1 349 11.6
2006-06-02 06:54:18 51°15.963 2°54.384 352.7 13.1 350 11.8
2006-06-02 06:54:23 51°15.981 2°54.378 352 13.1 348 11.8
2006-06-02 06:54:28 51°15.998 2°54.372 351.3 13 348 11.7
2006-06-02 06:54:34 51°16.019 2°54.364 350.9 13 348 11.8
2006-06-02 06:54:39 51°16.037 2°54.358 350.5 13 348 11.8
2006-06-02 06:54:42 51°16.047 2°54.355 350.4 12.2 348 11.9
2006-06-02 06:54:49 51°16.069 2°54.348 350.5 11.7 348 11.8
2006-06-02 06:54:54 51°16.083 2°54.343 350.7 11.3 349 12
2006-06-02 06:54:58 51°16.095 2°54.34 351.1 10.7 350 12.1
2006-06-02 06:55:04 51°16.111 2°54.335 351.8 10.3 351 12.2
2006-06-02 06:55:09 51°16.124 2°54.332 352.2 9.8 351 12.2
2006-06-02 06:55:13 51°16.135 2°54.329 352.7 9.5 351 12.1
2006-06-02 06:55:18 51°16.147 2°54.326 352.5 9.2 350 12.2
2006-06-02 06:55:24 51°16.161 2°54.322 352.2 8.4 350 12.2
2006-06-02 06:55:28 51°16.169 2°54.32 352.1 7.9 351 12.3
2006-06-02 06:55:34 51°16.181 2°54.316 351.9 7.9 351 12.2
2006-06-02 06:55:39 51°16.191 2°54.314 351.7 7.9 351 12.2
2006-06-02 06:55:44 51°16.199 2°54.311 351.3 6.6 349 12.3
2006-06-02 06:55:49 51°16.208 2°54.308 351.2 6.3 350 12.2
2006-06-02 06:55:54 51°16.216 2°54.306 351.2 6 351 12.2
2006-06-02 06:55:58 51°16.222 2°54.305 351.3 5.9 351 12.3
2006-06-02 06:56:04 51°16.23 2°54.303 351.7 5.2 352 12.3
2006-06-02 06:56:09 51°16.236 2°54.303 352.7 4.4 354 12.4
2006-06-02 06:56:14 51°16.24 2°54.302 353 3.7 353 12.3
2006-06-02 06:56:19 51°16.244 2°54.301 351.4 3 355 12.2
2006-06-02 06:56:24 51°16.247 2°54.301 348.8 2.3 357 12.3
2006-06-02 06:56:29 51°16.248 2°54.302 346.2 1.4 356 12.3
2006-06-02 06:56:33 51°16.249 2°54.302 344.7 0.8 29 12.3
2006-06-02 06:56:38 51°16.249 2°54.303 344.3 0.5 63 12.3
2006-06-02 06:56:43 51°16.248 2°54.305 344.7 0.7 108 12.3
2006-06-02 06:56:49 51°16.248 2°54.306 345.7 0.7 112 12.3
2006-06-02 06:56:54 51°16.248 2°54.308 346.5 0.6 116 12.2
2006-06-02 06:56:59 51°16.247 2°54.309 346.9 0.6 113 -999
2006-06-02 06:57:04 51°16.247 2°54.311 347.1 0.6 107 -999
2006-06-02 06:57:09 51°16.247 2°54.312 346.9 0.6 111 -999
2006-06-02 06:57:14 51°16.247 2°54.313 346.9 0.6 103 -999
2006-06-02 06:57:19 51°16.247 2°54.315 346.9 0.7 94 -999
2006-06-02 06:57:24 51°16.247 2°54.316 346.9 0.4 99 -999
2006-06-02 06:57:29 51°16.247 2°54.317 346.5 0.6 95 -999
2006-06-02 06:57:34 51°16.246 2°54.318 346.8 0.5 107 -999
2006-06-02 06:57:39 51°16.246 2°54.32 346.8 0.7 87 4.8
2006-06-02 06:57:44 51°16.246 2°54.32 346.7 0.3 100 4.7
2006-06-02 06:57:49 51°16.246 2°54.321 346.8 0.6 91 4.7
2006-06-02 06:57:53 51°16.246 2°54.322 346.5 0.3 116 5.2
2006-06-02 06:57:57 51°16.246 2°54.323 346.2 0.6 89 12.3
2006-06-02 06:58:03 51°16.246 2°54.324 345.9 0.3 102 5.3
2006-06-02 06:58:09 51°16.245 2°54.325 345.4 0.5 91 12.3
2006-06-02 06:58:13 51°16.245 2°54.326 344.7 0.3 106 12.3
2006-06-02 06:58:18 51°16.245 2°54.327 344.4 0.5 99 12.3
2006-06-02 06:58:24 51°16.245 2°54.327 343.6 0.3 103 12.4
2006-06-02 06:58:29 51°16.245 2°54.328 343.3 0.4 92 12.2
2006-06-02 06:58:34 51°16.245 2°54.329 342.7 0.4 109 12.2
2006-06-02 06:58:39 51°16.245 2°54.33 341.8 0.3 101 12.2
2006-06-02 06:58:44 51°16.245 2°54.33 341.1 0.6 95 12.2
2006-06-02 06:58:49 51°16.245 2°54.332 341.1 0.5 92 12.2
2006-06-02 06:58:53 51°16.245 2°54.332 340.4 0.3 112 12.1
2006-06-02 06:58:58 51°16.244 2°54.333 339.6 0.3 113 12.2
2006-06-02 06:59:04 51°16.244 2°54.334 339.4 0.2 115 12.2
2006-06-02 06:59:09 51°16.244 2°54.335 338.9 0.4 103 12.1
2006-06-02 06:59:14 51°16.244 2°54.336 338.2 0.3 105 12.2
2006-06-02 06:59:18 51°16.244 2°54.336 337.5 0.3 104 12.3
2006-06-02 06:59:24 51°16.244 2°54.337 337.5 0.4 103 12.2
2006-06-02 06:59:29 51°16.244 2°54.338 336.7 0.3 117 12.2
2006-06-02 06:59:33 51°16.244 2°54.338 335.9 0.4 97 12.3
2006-06-02 06:59:38 51°16.244 2°54.339 335.7 0.3 95 12.3
2006-06-02 06:59:43 51°16.244 2°54.34 335 0.3 108 12.3
2006-06-02 06:59:49 51°16.244 2°54.341 334.8 0.3 99 12.3
2006-06-02 06:59:54 51°16.244 2°54.342 334 0.3 100 12.3
2006-06-02 06:59:58 51°16.244 2°54.342 333.3 0.3 100 12.3
2006-06-02 07:00:04 51°16.244 2°54.343 333.2 0.4 90 12.3
2006-06-02 07:00:09 51°16.244 2°54.344 332.3 0.3 108 12.3
2006-06-02 07:00:14 51°16.244 2°54.345 331.9 0.4 92 12.3
2006-06-02 07:00:19 51°16.244 2°54.346 331.2 0.3 107 12.3
2006-06-02 07:00:23 51°16.243 2°54.346 330.6 0.3 97 12.2
2006-06-02 07:00:29 51°16.243 2°54.347 330 0.2 109 12.2
2006-06-02 07:00:33 51°16.243 2°54.347 329.2 0.2 113 12.2
2006-06-02 07:00:39 51°16.243 2°54.348 328.7 0.4 101 12.2
2006-06-02 07:00:44 51°16.243 2°54.349 327.5 0.3 105 12.2
2006-06-02 07:00:47 51°16.243 2°54.349 326.8 0.4 81 12.2
2006-06-02 07:00:54 51°16.243 2°54.35 326.2 0.4 92 12.3
2006-06-02 07:00:58 51°16.243 2°54.351 325.8 0.4 86 12.1
2006-06-02 07:01:04 51°16.243 2°54.351 324.6 0.3 111 12.1
2006-06-02 07:01:09 51°16.243 2°54.352 323.4 0.3 91 12.1
2006-06-02 07:01:14 51°16.243 2°54.353 322.7 0.3 102 12.1
2006-06-02 07:01:18 51°16.243 2°54.354 321.5 0.3 95 12.2
2006-06-02 07:01:24 51°16.243 2°54.354 320.6 0.3 117 12.3
2006-06-02 07:01:29 51°16.243 2°54.355 319.9 0.2 99 12.3
2006-06-02 07:01:33 51°16.243 2°54.356 319.1 0.4 78 12.2
2006-06-02 07:01:37 51°16.243 2°54.356 317.9 0.3 115 12.2
2006-06-02 07:01:44 51°16.243 2°54.357 317.6 0.4 86 12.2
2006-06-02 07:01:49 51°16.243 2°54.357 316.4 0.3 147 12.2
2006-06-02 07:01:53 51°16.243 2°54.358 315.7 0.4 67 12.2
2006-06-02 07:01:57 51°16.243 2°54.359 314.8 0.2 133 12.3
2006-06-02 07:02:04 51°16.243 2°54.359 314.2 0.5 73 12.2
2006-06-02 07:02:09 51°16.243 2°54.36 314.1 0.4 86 12.1
2006-06-02 07:02:13 51°16.243 2°54.361 312.9 0.4 74 12.1
2006-06-02 07:02:18 51°16.243 2°54.362 312.4 0.2 82 12.2
2006-06-02 07:02:24 51°16.243 2°54.362 312 0.3 96 12.1
2006-06-02 07:02:29 51°16.244 2°54.363 311.8 0.5 69 12.1
2006-06-02 07:02:34 51°16.243 2°54.364 310.6 0.2 122 12.2
2006-06-02 07:02:39 51°16.244 2°54.364 310.3 0.6 61 12.1
2006-06-02 07:02:44 51°16.244 2°54.365 309.6 0.2 123 12.1
2006-06-02 07:02:49 51°16.244 2°54.366 308.5 0.4 62 12.2
2006-06-02 07:02:53 51°16.244 2°54.367 308.1 0.3 90 12.2
2006-06-02 07:02:58 51°16.244 2°54.367 307.4 0.4 60 12.3
2006-06-02 07:03:03 51°16.244 2°54.368 306.6 0.2 80 12.3
2006-06-02 07:03:09 51°16.244 2°54.369 306.5 0.3 71 12.3
2006-06-02 07:03:14 51°16.244 2°54.369 305.6 0.3 96 12.3
2006-06-02 07:03:19 51°16.244 2°54.37 305.2 0.5 58 12.2
2006-06-02 07:03:24 51°16.245 2°54.371 304.4 0.3 104 12.2
2006-06-02 07:03:29 51°16.245 2°54.371 303.3 0.3 104 12.1
2006-06-02 07:03:34 51°16.245 2°54.372 303.9 0.5 62 12.1
2006-06-02 07:03:38 51°16.245 2°54.373 302.8 0.3 75 12
2006-06-02 07:03:44 51°16.245 2°54.374 301.9 0.2 96 12.1
2006-06-02 07:03:49 51°16.245 2°54.374 301.5 0.2 82 12.1
2006-06-02 07:03:53 51°16.246 2°54.375 301.3 0.5 48 12.2
2006-06-02 07:03:58 51°16.246 2°54.375 300.2 0.1 84 12.3
2006-06-02 07:04:01 51°16.246 2°54.375 299.7 0.3 68 12.2
2006-06-02 07:04:09 51°16.246 2°54.377 299.2 0.5 45 12.2
2006-06-02 07:04:13 51°16.246 2°54.377 298.2 0.2 98 12.3
2006-06-02 07:04:19 51°16.247 2°54.378 298 0.6 40 12.2
2006-06-02 07:04:24 51°16.247 2°54.378 297.5 0.3 77 12.2
2006-06-02 07:04:29 51°16.247 2°54.379 296.8 0.3 60 12.2
2006-06-02 07:04:33 51°16.247 2°54.379 297.1 0.3 54 12.2
2006-06-02 07:04:39 51°16.248 2°54.38 296.4 0.3 49 12.2
2006-06-02 07:04:44 51°16.248 2°54.38 296.1 0.3 47 12.1
2006-06-02 07:04:49 51°16.249 2°54.379 295.7 0.5 333 12.2
2006-06-02 07:04:53 51°16.249 2°54.378 295.1 0.9 308 12.2
2006-06-02 07:04:57 51°16.25 2°54.376 294.6 1.2 304 12.3
2006-06-02 07:05:04 51°16.252 2°54.372 294.3 1.4 300 12.2
2006-06-02 07:05:09 51°16.253 2°54.367 294.1 2.1 300 12.2
2006-06-02 07:05:13 51°16.255 2°54.363 294.3 2.8 299 12.2
2006-06-02 07:05:17 51°16.257 2°54.358 295 3.2 298 12
2006-06-02 07:05:24 51°16.26 2°54.348 296.1 3.7 300 12
2006-06-02 07:05:29 51°16.263 2°54.34 297.2 4.2 301 12.1
2006-06-02 07:05:34 51°16.266 2°54.33 298.9 4.6 302 12
2006-06-02 07:05:38 51°16.27 2°54.322 301.1 5.3 305 12
2006-06-02 07:05:44 51°16.276 2°54.309 303.7 6.1 306 12
2006-06-02 07:05:49 51°16.282 2°54.297 307.6 6.3 307 12
2006-06-02 07:05:54 51°16.289 2°54.285 310.5 7 310 12
2006-06-02 07:05:59 51°16.296 2°54.272 311.3 7.6 309 12.1
2006-06-02 07:06:04 51°16.304 2°54.257 311.3 8.2 309 12
2006-06-02 07:06:09 51°16.311 2°54.242 310.5 8.7 308 12.1
2006-06-02 07:06:13 51°16.317 2°54.23 310.1 9.1 309 12
2006-06-02 07:06:19 51°16.328 2°54.21 311 9.3 312 12
2006-06-02 07:06:24 51°16.337 2°54.194 312.6 9.6 311 12
2006-06-02 07:06:29 51°16.347 2°54.178 314.1 10.2 313 12.1
2006-06-02 07:06:33 51°16.355 2°54.165 315.7 10.4 315 12
2006-06-02 07:06:38 51°16.366 2°54.148 317.1 10.7 316 12.1
2006-06-02 07:06:44 51°16.379 2°54.128 317.9 10.9 317 12.1
2006-06-02 07:06:49 51°16.391 2°54.111 318.8 11.1 317 12.3
2006-06-02 07:06:54 51°16.403 2°54.094 319.5 11.2 317 12.1
2006-06-02 07:06:59 51°16.414 2°54.078 319.7 11.3 318 12.2
2006-06-02 07:07:04 51°16.426 2°54.062 320 11.4 318 12.2
2006-06-02 07:07:09 51°16.438 2°54.044 320.6 11.5 319 12.2
2006-06-02 07:07:13 51°16.448 2°54.031 321 11.7 320 12.3
2006-06-02 07:07:18 51°16.461 2°54.015 321.4 11.8 320 12.3
2006-06-02 07:07:24 51°16.476 2°53.994 322 12 321 12.2
2006-06-02 07:07:29 51°16.489 2°53.976 322.3 12.1 319 12.1
2006-06-02 07:07:33 51°16.5 2°53.963 322.2 12.4 320 12.2
2006-06-02 07:07:37 51°16.51 2°53.948 322.2 12.5 318 12.2
2006-06-02 07:07:43 51°16.526 2°53.926 322 12.5 321 12.3
2006-06-02 07:07:49 51°16.542 2°53.905 322 12.7 319 12.4
2006-06-02 07:07:53 51°16.553 2°53.89 322.1 12.8 320 12.2
2006-06-02 07:07:57 51°16.564 2°53.875 322.1 12.9 319 12.3
2006-06-02 07:08:03 51°16.58 2°53.854 322 12.8 320 12.2
2006-06-02 07:08:09 51°16.597 2°53.831 322.1 12.9 319 12.3
2006-06-02 07:08:14 51°16.61 2°53.812 321.9 12.9 319 12.3
2006-06-02 07:08:18 51°16.621 2°53.797 321.6 12.9 319 12.3
2006-06-02 07:08:24 51°16.637 2°53.775 321.7 13 319 12.3
2006-06-02 07:08:29 51°16.651 2°53.757 321.6 13 319 12.3
2006-06-02 07:08:34 51°16.665 2°53.738 321.5 13 319 12.2
2006-06-02 07:08:39 51°16.678 2°53.719 321.8 13.1 319 12.1
2006-06-02 07:08:44 51°16.692 2°53.7 321.6 13 319 12
2006-06-02 07:08:49 51°16.705 2°53.681 321 13.1 319 12
2006-06-02 07:08:53 51°16.716 2°53.666 320.7 13.1 319 12.1
2006-06-02 07:08:59 51°16.733 2°53.642 320.7 13.1 319 12
2006-06-02 07:09:04 51°16.747 2°53.625 320.9 13.3 320 12.1
2006-06-02 07:09:09 51°16.761 2°53.606 321.9 13.2 321 12.1
2006-06-02 07:09:13 51°16.772 2°53.591 322.8 13.1 321 11.9
2006-06-02 07:09:19 51°16.789 2°53.569 323.1 13.2 322 11.9
2006-06-02 07:09:23 51°16.801 2°53.555 323.5 13.2 321 11.8
2006-06-02 07:09:29 51°16.818 2°53.533 323.8 13.1 322 11.6
2006-06-02 07:09:34 51°16.832 2°53.515 323.7 13.1 320 11.7
2006-06-02 07:09:39 51°16.846 2°53.496 323.9 13.1 321 11.6
2006-06-02 07:09:44 51°16.86 2°53.477 323 13.1 320 11.7
2006-06-02 07:09:49 51°16.874 2°53.459 322.5 13.2 320 11.7
2006-06-02 07:09:53 51°16.885 2°53.443 322.2 13.2 319 11.4
2006-06-02 07:09:59 51°16.901 2°53.422 321.6 13.2 320 10.9
2006-06-02 07:10:02 51°16.91 2°53.409 321.5 13 319 10.3
2006-06-02 07:10:09 51°16.929 2°53.383 321.4 12.9 319 9.3
2006-06-02 07:10:14 51°16.942 2°53.364 321.1 12.8 319 9.1
2006-06-02 07:10:18 51°16.953 2°53.349 320.6 12.8 319 8.8
2006-06-02 07:10:23 51°16.966 2°53.331 320.8 12.7 318 8.6
2006-06-02 07:10:29 51°16.982 2°53.309 320.3 12.8 319 8.7
2006-06-02 07:10:33 51°16.993 2°53.294 320.6 12.7 319 8.9
2006-06-02 07:10:39 51°17.009 2°53.271 320.9 12.9 319 8.7
2006-06-02 07:10:42 51°17.017 2°53.261 321 13 321 8.9
2006-06-02 07:10:47 51°17.031 2°53.242 321.8 13 320 8.7
2006-06-02 07:10:54 51°17.051 2°53.217 322.2 13.1 321 9
2006-06-02 07:10:59 51°17.066 2°53.198 322.9 13 322 9.1
2006-06-02 07:11:04 51°17.08 2°53.18 322.9 13.1 321 9.2
2006-06-02 07:11:09 51°17.094 2°53.162 323.3 13.2 321 9.3
2006-06-02 07:11:13 51°17.105 2°53.147 323 13.1 321 9.6
2006-06-02 07:11:18 51°17.119 2°53.128 323.1 13.1 320 9.5
2006-06-02 07:11:24 51°17.136 2°53.106 322.2 13.3 321 9.7
2006-06-02 07:11:29 51°17.15 2°53.087 322.2 13.3 320 9.8
2006-06-02 07:11:33 51°17.161 2°53.072 321.5 13.3 319 9.8
2006-06-02 07:11:39 51°17.178 2°53.048 321 13.1 318 9.7
2006-06-02 07:11:44 51°17.191 2°53.029 320.4 13.2 318 9.9
2006-06-02 07:11:49 51°17.205 2°53.01 319.7 13 318 9.9
2006-06-02 07:11:53 51°17.215 2°52.993 318.8 13 316 10
2006-06-02 07:11:58 51°17.228 2°52.972 317.1 13.1 315 10.1
2006-06-02 07:12:03 51°17.24 2°52.952 316.8 13.1 314 10
2006-06-02 07:12:09 51°17.255 2°52.927 315.9 13.1 314 10.2
2006-06-02 07:12:14 51°17.267 2°52.906 315.1 12.8 313 10.3
2006-06-02 07:12:19 51°17.279 2°52.884 314.2 13 312 10.4
2006-06-02 07:12:24 51°17.292 2°52.863 314.6 13 312 10.2
2006-06-02 07:12:29 51°17.304 2°52.843 315.2 13 314 10.4
2006-06-02 07:12:33 51°17.314 2°52.825 315.6 13.1 312 10.5
2006-06-02 07:12:39 51°17.328 2°52.8 315.5 13.1 313 10.7
2006-06-02 07:12:43 51°17.338 2°52.783 315.5 13.1 312 10.8
2006-06-02 07:12:49 51°17.353 2°52.757 315.2 13.1 312 10.5
2006-06-02 07:12:54 51°17.366 2°52.736 315.5 13.1 313 10.6
2006-06-02 07:12:58 51°17.376 2°52.719 316.1 13.1 313 10.6
2006-06-02 07:13:04 51°17.39 2°52.694 315.8 13 312 10.7
2006-06-02 07:13:09 51°17.403 2°52.673 315.6 13 312 10.6
2006-06-02 07:13:14 51°17.414 2°52.651 315.5 13.1 311 10.8
2006-06-02 07:13:19 51°17.427 2°52.629 315 13.1 312 10.8
2006-06-02 07:13:21 51°17.432 2°52.621 315.5 13.1 312 10.8
2006-06-02 07:13:29 51°17.452 2°52.586 315.4 13.1 313 10.8
2006-06-02 07:13:33 51°17.461 2°52.569 315.5 13.1 313 10.9
2006-06-02 07:13:39 51°17.477 2°52.545 316 13.2 313 11
2006-06-02 07:13:43 51°17.486 2°52.527 316.9 13.1 314 11.1
2006-06-02 07:13:49 51°17.502 2°52.503 317.1 13 314 10.9
2006-06-02 07:13:53 51°17.512 2°52.487 317.3 12.9 314 11.1
2006-06-02 07:13:59 51°17.526 2°52.461 317.5 12.9 314 10.9
2006-06-02 07:14:04 51°17.539 2°52.441 317 12.9 314 10.9
2006-06-02 07:14:09 51°17.551 2°52.421 316.7 13 314 11
2006-06-02 07:14:14 51°17.564 2°52.4 316.9 12.9 314 11.1
2006-06-02 07:14:19 51°17.576 2°52.38 316.8 12.9 314 11
2006-06-02 07:14:24 51°17.589 2°52.359 316.8 12.8 314 11
2006-06-02 07:14:29 51°17.601 2°52.338 316.6 12.9 314 11
2006-06-02 07:14:33 51°17.611 2°52.322 316.6 12.9 314 10.9
2006-06-02 07:14:37 51°17.62 2°52.306 316.5 12.7 314 10.9
2006-06-02 07:14:43 51°17.635 2°52.281 316.4 12.7 314 10.9
2006-06-02 07:14:49 51°17.65 2°52.257 316.5 12.8 314 11
2006-06-02 07:14:54 51°17.661 2°52.237 316.3 12.9 312 11
2006-06-02 07:14:59 51°17.674 2°52.216 316.1 12.9 313 11
2006-06-02 07:15:04 51°17.686 2°52.195 316.1 12.7 313 10.9
2006-06-02 07:15:09 51°17.698 2°52.175 316.2 12.9 314 11.1
2006-06-02 07:15:14 51°17.711 2°52.154 316.7 12.8 314 11
2006-06-02 07:15:18 51°17.721 2°52.138 316.9 12.8 315 11
2006-06-02 07:15:22 51°17.73 2°52.121 317.4 12.9 314 11.1
2006-06-02 07:15:29 51°17.748 2°52.093 317.1 12.9 314 11.1
2006-06-02 07:15:33 51°17.757 2°52.076 316.9 12.9 313 11.3
2006-06-02 07:15:38 51°17.769 2°52.056 316.3 12.8 314 11.1
2006-06-02 07:15:44 51°17.784 2°52.03 316.1 12.9 313 11.1
2006-06-02 07:15:49 51°17.796 2°52.01 315.7 12.9 313 11.2
2006-06-02 07:15:53 51°17.806 2°51.992 315.7 12.9 312 11.1
2006-06-02 07:15:59 51°17.82 2°51.967 315.5 12.9 312 11
2006-06-02 07:16:04 51°17.832 2°51.945 315.4 12.9 312 11
2006-06-02 07:16:09 51°17.844 2°51.924 315 12.9 313 10.9
2006-06-02 07:16:13 51°17.854 2°51.908 315.7 12.9 313 10.8
2006-06-02 07:16:18 51°17.866 2°51.888 316.2 12.9 314 10.8
2006-06-02 07:16:24 51°17.882 2°51.863 316.6 12.9 314 11
2006-06-02 07:16:29 51°17.894 2°51.842 316.9 12.9 314 10.9
2006-06-02 07:16:34 51°17.906 2°51.822 317.2 12.8 315 10.9
2006-06-02 07:16:38 51°17.916 2°51.806 317.3 12.8 314 10.8
2006-06-02 07:16:43 51°17.929 2°51.785 317.3 12.7 315 10.9
2006-06-02 07:16:49 51°17.943 2°51.762 317.5 12.8 314 11.1
2006-06-02 07:16:53 51°17.954 2°51.746 317.3 12.8 315 11
2006-06-02 07:16:57 51°17.963 2°51.729 317.1 12.8 313 11.2
2006-06-02 07:17:04 51°17.981 2°51.7 316.9 12.8 315 11.1
2006-06-02 07:17:09 51°17.993 2°51.679 317 12.9 314 11.3
2006-06-02 07:17:13 51°18.003 2°51.664 317.1 12.9 315 11.4
2006-06-02 07:17:17 51°18.014 2°51.647 317.9 12.9 314 11.3
2006-06-02 07:17:24 51°18.031 2°51.619 318.2 12.9 315 11.4
2006-06-02 07:17:29 51°18.044 2°51.598 318.1 13 314 11.5
2006-06-02 07:17:34 51°18.056 2°51.578 317.4 13 314 11.7
2006-06-02 07:17:39 51°18.069 2°51.557 317.2 12.9 313 11.6
2006-06-02 07:17:44 51°18.081 2°51.536 316.7 12.8 313 11.8
2006-06-02 07:17:49 51°18.093 2°51.516 316.5 12.9 314 11.9
2006-06-02 07:17:54 51°18.106 2°51.496 316.7 12.9 315 12
2006-06-02 07:17:58 51°18.116 2°51.48 317.5 12.9 315 12
2006-06-02 07:18:02 51°18.126 2°51.464 318.2 12.8 316 12
2006-06-02 07:18:09 51°18.144 2°51.436 318.7 12.8 316 12.1
2006-06-02 07:18:13 51°18.155 2°51.421 319.3 12.9 317 12.3
2006-06-02 07:18:18 51°18.168 2°51.401 319.5 12.9 316 12.4
2006-06-02 07:18:24 51°18.183 2°51.378 319.6 12.8 317 12.6
2006-06-02 07:18:29 51°18.196 2°51.358 320 12.8 317 12.6
2006-06-02 07:18:33 51°18.206 2°51.343 320.2 12.8 317 12.7
2006-06-02 07:18:38 51°18.219 2°51.324 320.4 12.7 317 12.7
2006-06-02 07:18:43 51°18.233 2°51.304 320.6 12.8 318 12.9
2006-06-02 07:18:49 51°18.248 2°51.283 320.8 12.8 318 13.1
2006-06-02 07:18:54 51°18.26 2°51.265 321.5 12 319 13.2
2006-06-02 07:18:59 51°18.272 2°51.249 321.7 11.5 318 13.3
2006-06-02 07:19:04 51°18.283 2°51.232 321.9 11.2 318 13.4
2006-06-02 07:19:09 51°18.295 2°51.216 322.1 10.8 319 13.5
2006-06-02 07:19:14 51°18.306 2°51.201 322.2 10.5 319 13.6
2006-06-02 07:19:18 51°18.314 2°51.189 322.4 10.2 320 13.7
2006-06-02 07:19:23 51°18.325 2°51.176 322.5 10 319 13.7
2006-06-02 07:19:29 51°18.337 2°51.159 322.5 9.5 320 13.7
2006-06-02 07:19:34 51°18.346 2°51.146 322.6 9.2 320 13.8
2006-06-02 07:19:39 51°18.355 2°51.134 322.5 8.5 320 13.8
2006-06-02 07:19:44 51°18.363 2°51.122 322 8.1 318 13.9
2006-06-02 07:19:48 51°18.369 2°51.113 321.5 7.7 318 14
2006-06-02 07:19:53 51°18.377 2°51.102 321.2 7.3 318 14.1
2006-06-02 07:19:57 51°18.383 2°51.094 320.8 7.2 317 14.1
2006-06-02 07:20:04 51°18.392 2°51.08 320.3 6.8 318 14.2
2006-06-02 07:20:09 51°18.399 2°51.071 320.3 6.7 318 14.2
2006-06-02 07:20:14 51°18.405 2°51.063 320.6 6.1 320 14.2
2006-06-02 07:20:18 51°18.41 2°51.056 320.8 5.7 320 14.2
2006-06-02 07:20:24 51°18.416 2°51.047 321.5 5.5 319 14.3
2006-06-02 07:20:29 51°18.422 2°51.04 322.5 5.2 321 14.2
2006-06-02 07:20:33 51°18.426 2°51.034 323.5 5 321 14.3
2006-06-02 07:20:37 51°18.43 2°51.029 324.4 4.8 323 14.4
2006-06-02 07:20:44 51°18.437 2°51.021 325.8 4.6 323 14.5
2006-06-02 07:20:49 51°18.442 2°51.015 326.3 4.3 323 14.4
2006-06-02 07:20:54 51°18.447 2°51.01 327.3 4.2 327 14.4
2006-06-02 07:20:58 51°18.451 2°51.007 328 4.1 327 14.5
2006-06-02 07:21:04 51°18.456 2°51.002 328.8 3.7 328 14.5
2006-06-02 07:21:09 51°18.46 2°50.999 330.5 3.2 332 14.5
2006-06-02 07:21:14 51°18.463 2°50.996 333.8 2.7 333 14.4
2006-06-02 07:21:19 51°18.465 2°50.995 337.7 2 339 14.4
2006-06-02 07:21:24 51°18.467 2°50.994 342.9 1.7 340 14.5
2006-06-02 07:21:29 51°18.468 2°50.993 347.6 1.2 334 14.5
2006-06-02 07:21:33 51°18.469 2°50.993 352 0.7 343 14.5
2006-06-02 07:21:38 51°18.469 2°50.992 354.9 0.5 307 14.6
2006-06-02 07:21:43 51°18.469 2°50.992 357 0.2 344 14.5
2006-06-02 07:21:49 51°18.47 2°50.991 359.1 0.3 340 14.5
2006-06-02 07:21:54 51°18.47 2°50.991 359.9 0.3 342 14.6
2006-06-02 07:21:59 51°18.47 2°50.99 0.7 0.6 306 14.6
2006-06-02 07:22:03 51°18.471 2°50.99 1.4 0.3 2 14.5
2006-06-02 07:22:09 51°18.471 2°50.989 1.6 0.4 302 14.5
2006-06-02 07:22:14 51°18.471 2°50.988 1.8 0.3 324 14.5
2006-06-02 07:22:18 51°18.472 2°50.988 2 0.4 308 14.5
2006-06-02 07:22:24 51°18.472 2°50.987 1.9 0.4 327 14.5
2006-06-02 07:22:29 51°18.473 2°50.987 1.9 0.4 300 14.6
2006-06-02 07:22:34 51°18.473 2°50.986 1.9 0.3 318 5.1
2006-06-02 07:22:38 51°18.473 2°50.986 1.4 0.4 312 4.8
2006-06-02 07:22:44 51°18.474 2°50.985 1.1 0.3 327 -999
2006-06-02 07:22:49 51°18.474 2°50.985 0.7 0.4 314 -999
2006-06-02 07:22:54 51°18.474 2°50.984 -999 0.4 316 -999
2006-06-02 07:23:00 51°18.474 2°50.984 359.4 0.3 333 -999
2006-06-02 07:23:04 51°18.475 2°50.983 358.7 0.5 324 -999
2006-06-02 07:23:09 51°18.475 2°50.982 358 0.4 306 -999
2006-06-02 07:23:14 51°18.476 2°50.982 357.2 0.4 304 -999
2006-06-02 07:23:19 51°18.476 2°50.981 356.4 0.3 318 -999
2006-06-02 07:23:24 51°18.476 2°50.981 355.6 0.4 305 -999
2006-06-02 07:23:29 51°18.476 2°50.98 354.9 0.2 329 -999
2006-06-02 07:23:34 51°18.477 2°50.98 354.1 0.4 296 -999
2006-06-02 07:23:39 51°18.477 2°50.98 353.4 0.4 348 -999
2006-06-02 07:23:44 51°18.477 2°50.979 352.7 0.5 304 -999
2006-06-02 07:23:49 51°18.478 2°50.978 351.4 0.4 308 -999
2006-06-02 07:23:54 51°18.478 2°50.978 351.4 0.2 336 4.4
2006-06-02 07:23:59 51°18.478 2°50.977 350.3 0.4 330 -999
2006-06-02 07:24:04 51°18.479 2°50.978 349.6 0.3 351 -999
2006-06-02 07:24:09 51°18.479 2°50.977 349.1 0.4 308 4.6
2006-06-02 07:24:14 51°18.48 2°50.976 348 0.3 343 4.8
2006-06-02 07:24:18 51°18.48 2°50.976 347.5 0.4 304 -999
2006-06-02 07:24:24 51°18.48 2°50.976 347 0.3 5 -999
2006-06-02 07:24:29 51°18.48 2°50.976 346.4 0.3 327 -999
2006-06-02 07:24:34 51°18.481 2°50.975 345.7 0.3 312 -999
2006-06-02 07:24:39 51°18.481 2°50.975 344.9 0.3 312 14.5
2006-06-02 07:24:44 51°18.482 2°50.975 345.1 0.3 350 -999
2006-06-02 07:24:49 51°18.482 2°50.974 344.5 0.2 309 -999
2006-06-02 07:24:53 51°18.482 2°50.974 343.8 0.3 317 14.5
2006-06-02 07:24:59 51°18.482 2°50.973 343.3 0.3 319 14.5
2006-06-02 07:25:03 51°18.482 2°50.973 342.9 0.2 337 14.4
2006-06-02 07:25:09 51°18.483 2°50.972 342.1 0.2 296 14.4
2006-06-02 07:25:13 51°18.483 2°50.972 341 0.3 324 4.6
2006-06-02 07:25:18 51°18.483 2°50.972 340.1 0.3 310 4.9
2006-06-02 07:25:24 51°18.483 2°50.971 339.7 0.3 299 4.5
2006-06-02 07:25:29 51°18.484 2°50.97 338.9 0.2 315 14.5
2006-06-02 07:25:34 51°18.484 2°50.97 338.2 0.3 328 14.5
2006-06-02 07:25:39 51°18.484 2°50.97 337.5 0.4 282 14.5
2006-06-02 07:25:44 51°18.484 2°50.97 336.4 0.4 289 14.5
2006-06-02 07:25:49 51°18.485 2°50.969 335.9 0.3 324 14.6
2006-06-02 07:25:54 51°18.485 2°50.968 335.4 0.3 300 14.5
2006-06-02 07:25:58 51°18.485 2°50.968 334.5 0.3 315 14.5
2006-06-02 07:26:03 51°18.486 2°50.968 333.6 0.3 298 14.6
2006-06-02 07:26:08 51°18.486 2°50.967 332.8 0.3 316 14.6
2006-06-02 07:26:14 51°18.487 2°50.967 332.3 0.3 305 14.6
2006-06-02 07:26:18 51°18.486 2°50.966 331.2 0.4 272 14.6
2006-06-02 07:26:23 51°18.487 2°50.967 330.8 0.3 335 14.6
2006-06-02 07:26:28 51°18.487 2°50.966 330 0.2 312 14.5
2006-06-02 07:26:34 51°18.487 2°50.965 328.8 0.3 329 14.5
2006-06-02 07:26:39 51°18.487 2°50.964 328.4 0.3 314 14.5
2006-06-02 07:26:44 51°18.487 2°50.964 327.3 0.3 314 14.5
2006-06-02 07:26:49 51°18.488 2°50.963 326.5 0.2 298 14.5
2006-06-02 07:26:54 51°18.488 2°50.963 325.9 0.3 306 14.5
2006-06-02 07:26:57 51°18.488 2°50.962 325 0.4 285 14.5
2006-06-02 07:27:04 51°18.488 2°50.962 324.5 0.2 333 14.6
2006-06-02 07:27:09 51°18.489 2°50.961 323.6 0.3 268 14.5
2006-06-02 07:27:14 51°18.489 2°50.961 322.8 0.3 348 14.5
2006-06-02 07:27:19 51°18.489 2°50.961 322.1 0.4 277 14.6
2006-06-02 07:27:24 51°18.489 2°50.96 321.4 0.3 313 14.5
2006-06-02 07:27:28 51°18.489 2°50.959 321.1 0.3 288 14.5
2006-06-02 07:27:33 51°18.49 2°50.959 320.4 0.3 345 14.4
2006-06-02 07:27:39 51°18.49 2°50.958 319.2 0.4 258 14.5
2006-06-02 07:27:44 51°18.49 2°50.958 319.3 0.3 348 14.3
2006-06-02 07:27:49 51°18.49 2°50.957 318.5 0.2 279 14.4
2006-06-02 07:27:54 51°18.49 2°50.957 317.7 0.4 -999 14.5
2006-06-02 07:27:59 51°18.491 2°50.957 317.1 0.6 251 14.6
2006-06-02 07:28:04 51°18.491 2°50.956 316.4 0.6 251 14.5
2006-06-02 07:28:09 51°18.492 2°50.956 316.9 0.3 354 14.4
2006-06-02 07:28:13 51°18.492 2°50.955 315.3 0.4 277 14.5
2006-06-02 07:28:17 51°18.492 2°50.955 315.1 0.3 297 14.6
2006-06-02 07:28:24 51°18.492 2°50.954 314.8 0.3 339 14.6
2006-06-02 07:28:29 51°18.493 2°50.954 314.3 0.4 335 14.7
2006-06-02 07:28:34 51°18.493 2°50.953 313.6 0.3 319 14.6
2006-06-02 07:28:39 51°18.493 2°50.952 313.3 0.3 326 14.6
2006-06-02 07:28:44 51°18.493 2°50.952 312.5 0.3 326 14.6
2006-06-02 07:28:48 51°18.493 2°50.951 311.9 0.3 301 14.6
2006-06-02 07:28:53 51°18.494 2°50.951 311.6 0.3 313 14.6
2006-06-02 07:28:58 51°18.494 2°50.95 310.8 0.3 281 14.6
2006-06-02 07:29:01 51°18.494 2°50.95 310.2 0.3 317 14.6
2006-06-02 07:29:09 51°18.495 2°50.949 309.9 0.4 285 14.7
2006-06-02 07:29:13 51°18.495 2°50.949 309.1 0.4 300 14.6
2006-06-02 07:29:18 51°18.495 2°50.948 309.1 0.4 312 14.6
2006-06-02 07:29:24 51°18.495 2°50.948 308.4 0.3 319 14.6
2006-06-02 07:29:29 51°18.495 2°50.947 307.7 0.3 298 14.5
2006-06-02 07:29:34 51°18.496 2°50.946 307 0.3 304 14.5
2006-06-02 07:29:38 51°18.496 2°50.946 306.3 0.4 305 14.5
2006-06-02 07:29:44 51°18.497 2°50.945 305.8 0.4 300 14.6
2006-06-02 07:29:49 51°18.496 2°50.944 304.9 0.4 276 14.5
2006-06-02 07:29:54 51°18.497 2°50.944 304.9 0.4 263 14.4
2006-06-02 07:29:59 51°18.497 2°50.943 303.7 0.5 265 14.5
2006-06-02 07:30:03 51°18.497 2°50.942 303.3 0.4 266 14.5
2006-06-02 07:30:09 51°18.497 2°50.942 303.3 0.4 343 14.4
2006-06-02 07:30:14 51°18.498 2°50.941 301.9 0.4 276 14.4
2006-06-02 07:30:17 51°18.498 2°50.941 301.8 0.3 295 14.5
2006-06-02 07:30:22 51°18.498 2°50.94 301.9 0.5 290 14.5
2006-06-02 07:30:29 51°18.499 2°50.937 301.8 0.9 318 14.5
2006-06-02 07:30:33 51°18.5 2°50.936 301.9 1.1 297 14.6
2006-06-02 07:30:39 51°18.501 2°50.933 302.4 1.3 309 14.6
2006-06-02 07:30:42 51°18.501 2°50.931 303.8 1.5 301 14.6
2006-06-02 07:30:49 51°18.504 2°50.927 305.4 1.8 307 14.7
2006-06-02 07:30:54 51°18.505 2°50.923 307 1.9 300 14.7
2006-06-02 07:30:59 51°18.507 2°50.919 309.5 2 310 14.6
2006-06-02 07:31:04 51°18.509 2°50.916 310.7 2 310 14.5
2006-06-02 07:31:09 51°18.511 2°50.912 312.6 2.5 311 14.5
2006-06-02 07:31:14 51°18.514 2°50.907 315.4 2.8 316 14.5
2006-06-02 07:31:17 51°18.517 2°50.903 319.3 3.5 314 14.6
2006-06-02 07:31:24 51°18.523 2°50.896 322.2 3.8 323 14.6
2006-06-02 07:31:29 51°18.529 2°50.891 326.8 4.6 328 14.6
2006-06-02 07:31:34 51°18.535 2°50.886 332.4 4.9 329 14.8
2006-06-02 07:31:39 51°18.543 2°50.881 337.5 5.5 337 14.7
2006-06-02 07:31:44 51°18.551 2°50.878 342.1 5.8 342 14.8
2006-06-02 07:31:48 51°18.557 2°50.876 348.5 6.2 348 14.7
2006-06-02 07:31:53 51°18.567 2°50.874 352.5 6.8 355 14.7
2006-06-02 07:31:57 51°18.575 2°50.874 359.3 7.1 358 14.9
2006-06-02 07:32:04 51°18.589 2°50.876 4.5 7.4 5 14.8
2006-06-02 07:32:09 51°18.6 2°50.881 10.7 7.5 7 14.7
2006-06-02 07:32:14 51°18.611 2°50.887 16.9 8 19 14.7
2006-06-02 07:32:18 51°18.619 2°50.895 24.9 8.6 27 14.9
2006-06-02 07:32:24 51°18.631 2°50.908 31.9 8.9 34 14.9
2006-06-02 07:32:29 51°18.641 2°50.921 38.3 9.1 37 14.8
2006-06-02 07:32:33 51°18.649 2°50.934 44.2 9.7 46 14.8
2006-06-02 07:32:38 51°18.657 2°50.951 50 9.8 50 14.8
2006-06-02 07:32:44 51°18.666 2°50.974 55.8 10.2 57 14.8
2006-06-02 07:32:49 51°18.673 2°50.994 61.7 10.5 61 14.9
2006-06-02 07:32:53 51°18.679 2°51.011 64.9 10.8 62 14.8
2006-06-02 07:32:57 51°18.685 2°51.028 66.7 11.1 62 14.8
2006-06-02 07:33:01 51°18.691 2°51.046 66.7 11.5 61 14.8
2006-06-02 07:33:09 51°18.703 2°51.084 66.3 11.8 62 14.7
2006-06-02 07:33:13 51°18.71 2°51.102 66 12.1 60 14.7
2006-06-02 07:33:17 51°18.716 2°51.121 65.4 12.4 61 14.9
2006-06-02 07:33:21 51°18.723 2°51.14 64.9 12.4 62 14.8
2006-06-02 07:33:29 51°18.736 2°51.18 65.5 12.5 62 14.6
2006-06-02 07:33:33 51°18.742 2°51.199 66.8 12.6 63 14.8
2006-06-02 07:33:37 51°18.748 2°51.22 67.8 12.6 64 14.7
2006-06-02 07:33:44 51°18.758 2°51.256 68.6 12.6 64 14.7
2006-06-02 07:33:49 51°18.764 2°51.282 71.1 12.5 69 14.6
2006-06-02 07:33:54 51°18.769 2°51.308 74.1 12.6 71 14.7
2006-06-02 07:33:59 51°18.774 2°51.335 76.2 12.6 73 14.7
2006-06-02 07:34:04 51°18.779 2°51.362 78.2 12.7 75 14.6
2006-06-02 07:34:09 51°18.783 2°51.389 78.6 12.7 74 14.7
2006-06-02 07:34:13 51°18.786 2°51.411 79.1 12.7 77 14.8
2006-06-02 07:34:18 51°18.79 2°51.439 80.2 12.8 77 14.8
2006-06-02 07:34:24 51°18.796 2°51.471 80.2 12.7 77 14.7
2006-06-02 07:34:29 51°18.799 2°51.498 79.9 12.7 76 14.6
2006-06-02 07:34:34 51°18.804 2°51.525 80.4 12.6 74 14.7
2006-06-02 07:34:38 51°18.807 2°51.547 80.1 12.6 78 14.6
2006-06-02 07:34:44 51°18.812 2°51.58 79.9 12.6 75 14.5
2006-06-02 07:34:49 51°18.817 2°51.607 79.7 12.7 76 14.5
2006-06-02 07:34:54 51°18.821 2°51.634 79.7 12.7 76 14.5
2006-06-02 07:34:59 51°18.825 2°51.662 79.3 12.7 74 14.5
2006-06-02 07:35:03 51°18.829 2°51.684 79.6 12.8 76 14.4
2006-06-02 07:35:09 51°18.834 2°51.716 79.4 12.8 75 14.4
2006-06-02 07:35:13 51°18.838 2°51.738 79.2 12.7 75 14.3
2006-06-02 07:35:17 51°18.841 2°51.76 79.7 12.8 76 14.3
2006-06-02 07:35:24 51°18.847 2°51.799 79.1 12.7 74 14.2
2006-06-02 07:35:29 51°18.852 2°51.825 79.2 12.7 75 14.3
2006-06-02 07:35:34 51°18.856 2°51.853 79.1 12.7 74 14.2
2006-06-02 07:35:39 51°18.861 2°51.88 79.1 12.8 77 14.1
2006-06-02 07:35:41 51°18.863 2°51.891 79 12.7 76 14.1
2006-06-02 07:35:48 51°18.87 2°51.929 78.6 12.6 72 14.1
2006-06-02 07:35:54 51°18.876 2°51.961 77.1 12.6 74 13.9
2006-06-02 07:35:59 51°18.882 2°51.988 77.8 12.8 72 14.1
2006-06-02 07:36:03 51°18.886 2°52.009 76.2 12.6 72 14.1
2006-06-02 07:36:08 51°18.891 2°52.036 77.2 12.7 74 14.1
2006-06-02 07:36:14 51°18.897 2°52.068 77 12.6 73 13.9
2006-06-02 07:36:19 51°18.902 2°52.095 77.6 12.6 74 13.8
2006-06-02 07:36:24 51°18.906 2°52.122 77.7 12.6 74 13.8
2006-06-02 07:36:29 51°18.912 2°52.148 77.9 12.6 74 13.9
2006-06-02 07:36:34 51°18.916 2°52.175 78.2 12.7 74 13.9
2006-06-02 07:36:39 51°18.921 2°52.202 77.9 12.5 72 13.7
2006-06-02 07:36:44 51°18.926 2°52.228 77.3 12.5 72 13.7
2006-06-02 07:36:49 51°18.932 2°52.255 77.7 12.6 72 13.7
2006-06-02 07:36:53 51°18.936 2°52.276 77 12.5 73 13.7
2006-06-02 07:36:57 51°18.94 2°52.297 76.7 12.6 73 13.6
2006-06-02 07:37:04 51°18.947 2°52.335 76.9 12.6 72 13.5
2006-06-02 07:37:09 51°18.952 2°52.361 77.7 12.5 72 13.4
2006-06-02 07:37:14 51°18.957 2°52.388 77.5 12.5 73 13.4
2006-06-02 07:37:19 51°18.962 2°52.414 77.2 12.5 73 13.5
2006-06-02 07:37:24 51°18.967 2°52.441 77.7 12.6 74 13.4
2006-06-02 07:37:29 51°18.973 2°52.467 77.5 12.5 73 13.4
2006-06-02 07:37:34 51°18.978 2°52.494 77.2 12.5 73 13.3
2006-06-02 07:37:38 51°18.981 2°52.515 77.3 12.5 73 13.3
2006-06-02 07:37:42 51°18.986 2°52.536 77 12.5 73 13.2
2006-06-02 07:37:49 51°18.993 2°52.573 76.9 12.5 72 13.1
2006-06-02 07:37:53 51°18.997 2°52.594 77 12.5 73 13.1
2006-06-02 07:37:58 51°19.002 2°52.621 76.8 12.5 73 13.1
2006-06-02 07:38:04 51°19.008 2°52.653 76.7 12.5 73 13
2006-06-02 07:38:09 51°19.014 2°52.679 77.3 12.5 74 13
2006-06-02 07:38:13 51°19.017 2°52.701 78 12.6 75 13
2006-06-02 07:38:18 51°19.022 2°52.727 78.4 12.5 73 13
2006-06-02 07:38:22 51°19.025 2°52.748 77.9 12.5 76 13
2006-06-02 07:38:29 51°19.032 2°52.785 78.3 12.6 72 12.8
2006-06-02 07:38:33 51°19.037 2°52.806 77 12.5 73 12.9
2006-06-02 07:38:38 51°19.042 2°52.833 77.7 12.5 73 12.9
2006-06-02 07:38:44 51°19.048 2°52.865 78 12.5 73 13
2006-06-02 07:38:49 51°19.053 2°52.891 77.2 12.5 73 12.9
2006-06-02 07:38:53 51°19.057 2°52.912 77.5 12.6 72 12.9
2006-06-02 07:38:59 51°19.064 2°52.944 76.5 12.6 71 12.9
2006-06-02 07:39:04 51°19.069 2°52.97 75.8 12.4 70 12.7
2006-06-02 07:39:09 51°19.076 2°52.996 75.4 12.5 69 12.7
2006-06-02 07:39:14 51°19.082 2°53.022 74.9 12.5 70 12.7
2006-06-02 07:39:19 51°19.088 2°53.048 74.7 12.5 70 12.6
2006-06-02 07:39:24 51°19.094 2°53.073 74.4 12.4 68 12.7
2006-06-02 07:39:29 51°19.1 2°53.099 74.3 12.4 71 12.7
2006-06-02 07:39:33 51°19.105 2°53.12 74.4 12.5 69 12.5
2006-06-02 07:39:38 51°19.111 2°53.146 74.2 12.5 70 12.6
2006-06-02 07:39:44 51°19.118 2°53.177 75.1 12.4 70 12.7
2006-06-02 07:39:48 51°19.122 2°53.197 75.4 12.3 72 12.7
2006-06-02 07:39:54 51°19.128 2°53.229 76.8 12.5 71 12.6
2006-06-02 07:39:59 51°19.134 2°53.255 76.7 12.4 72 12.6
2006-06-02 07:40:04 51°19.139 2°53.281 76.2 12.4 72 12.6
2006-06-02 07:40:09 51°19.144 2°53.308 76.3 12.5 73 12.6
2006-06-02 07:40:14 51°19.149 2°53.334 77 12.5 73 12.6
2006-06-02 07:40:19 51°19.155 2°53.36 77.1 12.5 74 12.6
2006-06-02 07:40:24 51°19.159 2°53.386 77.7 12.4 74 12.6
2006-06-02 07:40:29 51°19.164 2°53.413 77.9 12.4 73 12.6
2006-06-02 07:40:34 51°19.169 2°53.439 77.6 12.4 73 12.6
2006-06-02 07:40:39 51°19.174 2°53.465 77.9 12.5 74 12.6
2006-06-02 07:40:44 51°19.179 2°53.492 77.8 12.5 74 12.6
2006-06-02 07:40:49 51°19.184 2°53.518 77.6 12.4 74 12.5
2006-06-02 07:40:53 51°19.188 2°53.539 78 12.5 73 12.5
2006-06-02 07:40:59 51°19.195 2°53.57 77.1 12.5 72 12.7
2006-06-02 07:41:04 51°19.2 2°53.597 76.9 12.5 71 12.6
2006-06-02 07:41:09 51°19.205 2°53.623 77.1 12.5 71 12.4
2006-06-02 07:41:13 51°19.209 2°53.645 76.9 12.6 72 12.5
2006-06-02 07:41:18 51°19.215 2°53.671 76.9 12.6 71 12.6
2006-06-02 07:41:24 51°19.221 2°53.703 76.3 12.6 73 12.5
2006-06-02 07:41:29 51°19.227 2°53.729 76.5 12.5 71 12.5
2006-06-02 07:41:33 51°19.231 2°53.75 76.2 12.6 73 12.6
2006-06-02 07:41:38 51°19.237 2°53.776 76.6 12.5 71 12.6
2006-06-02 07:41:44 51°19.243 2°53.808 76.3 12.5 73 12.5
2006-06-02 07:41:49 51°19.249 2°53.834 76.8 12.6 71 12.5
2006-06-02 07:41:53 51°19.252 2°53.856 77.3 12.6 74 12.4
2006-06-02 07:41:58 51°19.258 2°53.882 77.5 12.6 72 12.3
2006-06-02 07:42:03 51°19.263 2°53.909 77.5 12.5 72 12.5
2006-06-02 07:42:09 51°19.27 2°53.941 77.3 12.5 72 12.4
2006-06-02 07:42:14 51°19.275 2°53.967 77.4 12.6 73 12.3
2006-06-02 07:42:19 51°19.281 2°53.993 77.6 12.6 71 12.4
2006-06-02 07:42:24 51°19.286 2°54.021 77.6 12.6 71 12.3
2006-06-02 07:42:29 51°19.292 2°54.047 77.6 12.8 70 12.3
2006-06-02 07:42:34 51°19.298 2°54.073 77 12.8 72 12.4
2006-06-02 07:42:38 51°19.303 2°54.095 76.8 12.7 70 12.4
2006-06-02 07:42:44 51°19.31 2°54.127 76.7 12.7 72 12.4
2006-06-02 07:42:48 51°19.314 2°54.149 77 12.9 70 12.3
2006-06-02 07:42:54 51°19.321 2°54.18 76.9 12.9 71 12.3
2006-06-02 07:42:59 51°19.327 2°54.208 77.5 12.9 71 12.3
2006-06-02 07:43:04 51°19.333 2°54.234 77.4 12.8 70 12.5
2006-06-02 07:43:09 51°19.339 2°54.261 76.8 12.8 71 12.3
2006-06-02 07:43:14 51°19.345 2°54.288 77.4 13.1 70 12.2
2006-06-02 07:43:17 51°19.348 2°54.304 76.4 12.8 71 12.3
2006-06-02 07:43:24 51°19.356 2°54.341 77.7 12.7 72 12.4
2006-06-02 07:43:29 51°19.362 2°54.369 78.3 12.8 71 12.3
2006-06-02 07:43:34 51°19.367 2°54.396 78.2 12.9 72 12.3
2006-06-02 07:43:39 51°19.373 2°54.423 78.4 12.9 72 12.2
2006-06-02 07:43:44 51°19.378 2°54.45 78.9 12.9 72 12.3
2006-06-02 07:43:49 51°19.383 2°54.477 79.1 12.7 72 12.3
2006-06-02 07:43:53 51°19.387 2°54.499 79.2 12.8 73 12.3
2006-06-02 07:43:58 51°19.394 2°54.525 78.2 12.9 70 12.4
2006-06-02 07:44:04 51°19.401 2°54.557 77.2 12.8 70 12.4
2006-06-02 07:44:09 51°19.406 2°54.584 77.1 12.9 70 12.4
2006-06-02 07:44:14 51°19.412 2°54.611 76.5 12.8 70 12.4
2006-06-02 07:44:19 51°19.419 2°54.637 76.3 12.6 70 12.4
2006-06-02 07:44:22 51°19.422 2°54.654 76.5 12.8 72 12.4
2006-06-02 07:44:29 51°19.431 2°54.691 76.4 12.9 68 12.3
2006-06-02 07:44:33 51°19.435 2°54.712 76.4 12.8 71 12.3
2006-06-02 07:44:38 51°19.441 2°54.738 77.1 12.8 70 12.3
2006-06-02 07:44:44 51°19.448 2°54.771 77.2 12.7 69 12.2
2006-06-02 07:44:49 51°19.453 2°54.798 77.7 12.8 69 12.2
2006-06-02 07:44:54 51°19.459 2°54.825 78.3 12.9 74 12.3
2006-06-02 07:44:59 51°19.464 2°54.852 78.3 12.8 71 12.4
2006-06-02 07:45:04 51°19.47 2°54.879 78.4 12.8 72 12.5
2006-06-02 07:45:09 51°19.476 2°54.906 78 12.8 71 12.5
2006-06-02 07:45:14 51°19.481 2°54.932 77.5 12.7 71 12.4
2006-06-02 07:45:19 51°19.487 2°54.959 76.9 12.8 71 12.4
2006-06-02 07:45:24 51°19.493 2°54.986 77.1 12.8 71 12.4
2006-06-02 07:45:29 51°19.499 2°55.013 77 12.8 71 12.4
2006-06-02 07:45:34 51°19.504 2°55.039 76.9 12.6 71 12.4
2006-06-02 07:45:38 51°19.508 2°55.061 77.3 12.6 71 12.3
2006-06-02 07:45:44 51°19.515 2°55.092 77.8 12.8 70 12.2
2006-06-02 07:45:49 51°19.521 2°55.119 77.3 12.7 71 12.3
2006-06-02 07:45:54 51°19.527 2°55.146 78 12.7 74 12.4
2006-06-02 07:45:58 51°19.53 2°55.168 77.8 12.7 74 12.3
2006-06-02 07:46:04 51°19.537 2°55.199 77.9 12.7 71 12.3
2006-06-02 07:46:09 51°19.542 2°55.226 77.7 12.7 73 12.2
2006-06-02 07:46:13 51°19.547 2°55.248 78.2 12.8 72 12.2
2006-06-02 07:46:19 51°19.553 2°55.279 77.5 12.7 72 12.4
2006-06-02 07:46:24 51°19.558 2°55.306 77.7 12.7 72 12.4
2006-06-02 07:46:29 51°19.563 2°55.332 77.5 12.6 72 12.3
2006-06-02 07:46:34 51°19.569 2°55.359 78 12.7 73 12.2
2006-06-02 07:46:39 51°19.575 2°55.386 77.7 12.6 72 12.4
2006-06-02 07:46:44 51°19.58 2°55.412 77.4 12.6 72 12.3
2006-06-02 07:46:49 51°19.585 2°55.439 77 12.7 72 12.2
2006-06-02 07:46:54 51°19.591 2°55.465 77 12.7 71 12.3
2006-06-02 07:46:59 51°19.596 2°55.492 78.1 12.6 74 12.2
2006-06-02 07:47:04 51°19.601 2°55.519 78.4 12.6 73 12.2
2006-06-02 07:47:09 51°19.607 2°55.545 78.3 12.5 73 12.2
2006-06-02 07:47:14 51°19.612 2°55.572 77.8 12.5 73 12.1
2006-06-02 07:47:18 51°19.616 2°55.593 77.5 12.5 71 12.1
2006-06-02 07:47:24 51°19.623 2°55.625 77.1 12.7 72 12.1
2006-06-02 07:47:29 51°19.629 2°55.651 76.3 12.6 71 12.1
2006-06-02 07:47:34 51°19.634 2°55.677 76.5 12.5 72 12
2006-06-02 07:47:39 51°19.64 2°55.704 76.7 12.6 70 12
2006-06-02 07:47:44 51°19.646 2°55.73 75.8 12.6 69 12
2006-06-02 07:47:49 51°19.652 2°55.756 76.4 12.8 69 12
2006-06-02 07:47:53 51°19.656 2°55.778 76.2 12.7 72 12.1
2006-06-02 07:47:58 51°19.661 2°55.805 76.7 12.8 71 12
2006-06-02 07:48:04 51°19.668 2°55.836 76.9 12.6 71 12
2006-06-02 07:48:09 51°19.673 2°55.863 77.3 12.6 74 11.9
2006-06-02 07:48:14 51°19.679 2°55.89 78.2 12.6 71 11.8
2006-06-02 07:48:18 51°19.683 2°55.911 77.8 12.7 73 11.8
2006-06-02 07:48:24 51°19.689 2°55.943 78.2 12.6 71 11.8
2006-06-02 07:48:29 51°19.695 2°55.97 77.6 12.6 73 11.8
2006-06-02 07:48:34 51°19.701 2°55.996 77.5 12.6 73 11.8
2006-06-02 07:48:39 51°19.705 2°56.023 77.2 12.6 73 11.9
2006-06-02 07:48:44 51°19.711 2°56.049 77.5 12.6 73 11.8
2006-06-02 07:48:49 51°19.716 2°56.075 77.1 12.6 72 11.8
2006-06-02 07:48:54 51°19.722 2°56.102 77 12.5 71 11.8
2006-06-02 07:48:59 51°19.728 2°56.128 77.2 12.7 72 11.8
2006-06-02 07:49:04 51°19.733 2°56.155 77.3 12.7 72 11.8
2006-06-02 07:49:09 51°19.739 2°56.181 77.2 12.4 72 11.8
2006-06-02 07:49:14 51°19.743 2°56.208 77.8 12.5 74 11.7
2006-06-02 07:49:19 51°19.749 2°56.235 78 12.6 73 11.7
2006-06-02 07:49:24 51°19.754 2°56.262 78.3 12.6 74 11.7
2006-06-02 07:49:29 51°19.759 2°56.289 78.3 12.7 73 11.7
2006-06-02 07:49:34 51°19.765 2°56.315 78.1 12.6 73 11.8
2006-06-02 07:49:39 51°19.769 2°56.342 77.7 12.5 73 11.6
2006-06-02 07:49:44 51°19.775 2°56.368 78 12.5 73 11.7
2006-06-02 07:49:49 51°19.779 2°56.395 77.6 12.6 71 11.5
2006-06-02 07:49:53 51°19.784 2°56.416 77.6 12.6 71 11.5
2006-06-02 07:49:58 51°19.79 2°56.443 77.6 12.6 73 11.7
2006-06-02 07:50:04 51°19.796 2°56.474 76.9 12.5 72 11.7
2006-06-02 07:50:09 51°19.801 2°56.5 76.7 12.5 71 11.6
2006-06-02 07:50:14 51°19.807 2°56.526 76.5 12.5 71 11.6
2006-06-02 07:50:19 51°19.812 2°56.552 76.5 12.5 73 11.6
2006-06-02 07:50:24 51°19.818 2°56.579 76.7 12.5 73 11.6
2006-06-02 07:50:29 51°19.823 2°56.604 76.8 12.5 72 11.8
2006-06-02 07:50:33 51°19.827 2°56.625 76.8 12.3 73 11.6
2006-06-02 07:50:39 51°19.833 2°56.657 77.4 12.3 73 11.5
2006-06-02 07:50:44 51°19.837 2°56.683 77.9 12.4 73 11.6
2006-06-02 07:50:49 51°19.842 2°56.709 78.2 12.4 74 11.6
2006-06-02 07:50:54 51°19.847 2°56.736 78.8 12.4 75 11.6
2006-06-02 07:50:58 51°19.85 2°56.757 78.8 12.4 75 11.5
2006-06-02 07:51:04 51°19.857 2°56.789 79.3 12.4 73 11.6
2006-06-02 07:51:09 51°19.861 2°56.815 79 12.4 73 11.6
2006-06-02 07:51:14 51°19.866 2°56.841 77.8 12.4 73 11.6
2006-06-02 07:51:19 51°19.872 2°56.868 78.4 12.4 73 11.5
2006-06-02 07:51:21 51°19.874 2°56.878 77.6 12.5 70 11.5
2006-06-02 07:51:29 51°19.883 2°56.92 75.9 12.4 74 11.5
2006-06-02 07:51:33 51°19.887 2°56.941 76.5 12.5 72 11.3
2006-06-02 07:51:38 51°19.893 2°56.967 76.5 12.5 71 11.4
2006-06-02 07:51:44 51°19.899 2°56.999 76.4 12.5 70 11.6
2006-06-02 07:51:49 51°19.905 2°57.024 77.1 12.4 73 11.5
2006-06-02 07:51:54 51°19.91 2°57.051 76.9 12.4 70 11.3
2006-06-02 07:51:59 51°19.915 2°57.077 77 12.5 73 11.3
2006-06-02 07:52:03 51°19.92 2°57.098 76.8 12.4 71 11.4
2006-06-02 07:52:09 51°19.926 2°57.129 76.9 12.4 72 11.3
2006-06-02 07:52:13 51°19.931 2°57.15 76.9 12.4 71 11.5
2006-06-02 07:52:19 51°19.937 2°57.182 76.7 12.4 73 11.4
2006-06-02 07:52:24 51°19.942 2°57.208 77.8 12.5 70 11.3
2006-06-02 07:52:29 51°19.948 2°57.233 77.1 12.3 72 11.5
2006-06-02 07:52:34 51°19.953 2°57.26 76.6 12.3 71 11.4
2006-06-02 07:52:39 51°19.958 2°57.286 77 12.3 73 11.4
2006-06-02 07:52:44 51°19.963 2°57.312 76.9 12.3 73 11.3
2006-06-02 07:52:49 51°19.968 2°57.338 77.5 12.3 72 11.4
2006-06-02 07:52:53 51°19.972 2°57.358 77.7 12.3 73 11.4
2006-06-02 07:52:57 51°19.976 2°57.379 77.9 12.3 73 11.2
2006-06-02 07:53:04 51°19.983 2°57.416 77.6 12.3 72 11.3
2006-06-02 07:53:09 51°19.989 2°57.442 77.5 12.4 73 11.4
2006-06-02 07:53:14 51°19.993 2°57.468 77.6 12.4 74 11.4
2006-06-02 07:53:19 51°19.999 2°57.495 77.8 12.4 73 11.2
2006-06-02 07:53:24 51°20.003 2°57.521 76.9 12.4 74 11.2
2006-06-02 07:53:29 51°20.009 2°57.546 77.6 12.4 71 11.3
2006-06-02 07:53:34 51°20.013 2°57.573 76.8 12.3 71 11.2
2006-06-02 07:53:39 51°20.019 2°57.599 77.4 12.5 72 11.2
2006-06-02 07:53:44 51°20.024 2°57.625 77.6 12.4 71 11.3
2006-06-02 07:53:49 51°20.029 2°57.651 77 12.3 72 11.3
2006-06-02 07:53:54 51°20.035 2°57.678 77.1 12.3 72 11.2
2006-06-02 07:53:59 51°20.04 2°57.704 76.9 12.3 73 11.2
2006-06-02 07:54:04 51°20.045 2°57.73 77.7 12.5 71 11.2
2006-06-02 07:54:09 51°20.05 2°57.756 76.8 12.4 74 11.2
2006-06-02 07:54:14 51°20.055 2°57.782 77 12.3 71 11.1
2006-06-02 07:54:19 51°20.061 2°57.808 77 12.3 73 11.2
2006-06-02 07:54:24 51°20.066 2°57.834 77.6 12.3 73 11.1
2006-06-02 07:54:29 51°20.07 2°57.861 77.4 12.4 74 11
2006-06-02 07:54:34 51°20.076 2°57.886 77.7 12.4 73 11.1
2006-06-02 07:54:37 51°20.079 2°57.902 76.9 12.3 74 11.2
2006-06-02 07:54:44 51°20.086 2°57.938 77.2 12.4 72 11.1
2006-06-02 07:54:49 51°20.091 2°57.964 76.9 12.4 72 11
2006-06-02 07:54:54 51°20.097 2°57.99 76.6 12.4 72 11.1
2006-06-02 07:54:59 51°20.101 2°58.017 76.8 12.4 73 11
2006-06-02 07:55:04 51°20.107 2°58.042 77.4 12.4 74 11.1
2006-06-02 07:55:08 51°20.11 2°58.064 77.6 12.4 74 11.1
2006-06-02 07:55:13 51°20.116 2°58.089 77.8 12.4 71 11.2
2006-06-02 07:55:18 51°20.12 2°58.116 77.4 12.2 75 11
2006-06-02 07:55:24 51°20.126 2°58.148 78.7 12.5 74 10.9
2006-06-02 07:55:29 51°20.131 2°58.174 77.8 12.4 72 10.9
2006-06-02 07:55:34 51°20.135 2°58.2 77.5 12.2 75 10.8
2006-06-02 07:55:38 51°20.14 2°58.221 78.5 12.4 71 10.9
2006-06-02 07:55:44 51°20.145 2°58.252 77.2 12.4 74 11